When you browse on this site, cookies collect data to enhance your experience and personalize the content and advertising you see.
Visit our Privacy Policy to learn more. By continuing to use the site, you agree to this use of cookies and data.
  • In Portugal
  • List of Countries
  • For 7 days
  • Water Temperature
  • Satellite Maps
  • Weather Map
  • Weather Widgets
  • user-avatar
    Login

    Hourly Weather Oran

    Today, 24 March, Sunday

    Time Temperature Precipitation Wind Pressure Humidity
    00:00 +12°C° 0 mm 4 mps 754 mmHg 86%
    01:00 +12°C° 0 mm 4 mps 754 mmHg 83%
    02:00 +12°C° 0 mm 3 mps 754 mmHg 80%
    03:00 +12°C° 0 mm 3 mps 754 mmHg 78%
    04:00 +12°C° 0 mm 4 mps 754 mmHg 73%
    05:00 +12°C° 0 mm 4 mps 753 mmHg 68%
    06:00 +12°C° 0 mm 4 mps 753 mmHg 63%
    07:00 +14°C° 0 mm 4 mps 754 mmHg 58%
    08:00 +17°C° 0 mm 4 mps 754 mmHg 52%
    09:00 +19°C° 0 mm 4 mps 754 mmHg 46%
    10:00 +20°C° 0 mm 3 mps 754 mmHg 43%
    11:00 +21°C° 0 mm 3 mps 755 mmHg 41%
    12:00 +22°C° 0 mm 3 mps 755 mmHg 39%
    13:00 +22°C° 0 mm 3 mps 754 mmHg 41%
    14:00 +21°C° 0 mm 3 mps 754 mmHg 43%
    15:00 +20°C° 0 mm 3 mps 753 mmHg 46%
    16:00 +20°C° 0.1 mm 3 mps 753 mmHg 49%
    17:00 +19°C° 0.1 mm 4 mps 753 mmHg 53%
    18:00 +18°C° 0.1 mm 4 mps 753 mmHg 57%
    19:00 +16°C° 0.1 mm 5 mps 753 mmHg 57%
    20:00 +16°C° 0.1 mm 5 mps 753 mmHg 58%
    21:00 +16°C° 0.1 mm 6 mps 754 mmHg 58%
    22:00 +15°C° 0.1 mm 5 mps 754 mmHg 57%
    23:00 +15°C° 0.1 mm 5 mps 754 mmHg 57%

    Tomorrow, 25 March, Monday

    Time Temperature Precipitation Wind Pressure Humidity
    00:00 +15°C° 0.1 mm 4 mps 753 mmHg 56%
    01:00 +16°C° 0.3 mm 3 mps 753 mmHg 57%
    02:00 +14°C° 0.3 mm 3 mps 753 mmHg 58%
    03:00 +15°C° 0.3 mm 2 mps 752 mmHg 58%
    04:00 +15°C° 0 mm 2 mps 752 mmHg 58%
    05:00 +14°C° 0 mm 2 mps 752 mmHg 58%
    06:00 +14°C° 0 mm 1 mps 752 mmHg 58%
    07:00 +16°C° 0 mm 1 mps 753 mmHg 53%
    08:00 +19°C° 0 mm 1 mps 753 mmHg 47%
    09:00 +21°C° 0 mm 1 mps 753 mmHg 41%
    10:00 +22°C° 0 mm 1 mps 753 mmHg 38%
    11:00 +24°C° 0 mm 2 mps 752 mmHg 35%
    12:00 +25°C° 0 mm 2 mps 752 mmHg 32%
    13:00 +25°C° 0 mm 4 mps 752 mmHg 34%
    14:00 +24°C° 0 mm 6 mps 751 mmHg 37%
    15:00 +23°C° 0 mm 7 mps 750 mmHg 39%
    16:00 +22°C° 0 mm 7 mps 750 mmHg 45%
    17:00 +20°C° 0 mm 6 mps 750 mmHg 51%
    18:00 +19°C° 0 mm 5 mps 750 mmHg 57%
    19:00 +17°C° 0 mm 5 mps 751 mmHg 61%
    20:00 +18°C° 0 mm 4 mps 751 mmHg 65%
    21:00 +17°C° 0 mm 4 mps 751 mmHg 69%
    22:00 +17°C° 0 mm 4 mps 751 mmHg 71%
    23:00 +15°C° 0 mm 4 mps 751 mmHg 73%

    Day after tomorrow, 26 March, Tuesday

    Time Temperature Precipitation Wind Pressure Humidity
    00:00 +15°C° 0 mm 4 mps 751 mmHg 76%
    01:00 +15°C° 0 mm 4 mps 750 mmHg 77%
    02:00 +14°C° 0 mm 4 mps 750 mmHg 78%
    03:00 +14°C° 0 mm 4 mps 750 mmHg 79%
    04:00 +14°C° 0 mm 4 mps 750 mmHg 80%
    05:00 +14°C° 0 mm 4 mps 750 mmHg 80%
    06:00 +14°C° 0 mm 4 mps 750 mmHg 80%
    07:00 +15°C° 0 mm 4 mps 751 mmHg 74%
    08:00 +17°C° 0 mm 4 mps 751 mmHg 68%
    09:00 +19°C° 0 mm 5 mps 752 mmHg 62%
    10:00 +19°C° 0.2 mm 5 mps 751 mmHg 61%
    11:00 +19°C° 0.2 mm 5 mps 751 mmHg 60%
    12:00 +20°C° 0.2 mm 5 mps 751 mmHg 60%
    13:00 +21°C° 0 mm 7 mps 751 mmHg 56%
    14:00 +22°C° 0 mm 8 mps 750 mmHg 53%
    15:00 +23°C° 0 mm 10 mps 749 mmHg 49%
    16:00 +21°C° 0 mm 10 mps 749 mmHg 54%
    17:00 +19°C° 0 mm 11 mps 749 mmHg 59%
    18:00 +17°C° 0 mm 11 mps 749 mmHg 64%
    19:00 +17°C° 0 mm 11 mps 750 mmHg 64%
    20:00 +16°C° 0 mm 11 mps 751 mmHg 63%
    21:00 +16°C° 0 mm 11 mps 751 mmHg 63%
    22:00 +14°C° 0 mm 11 mps 752 mmHg 57%
    23:00 +14°C° 0 mm 11 mps 752 mmHg 52%

    27 March, Wednesday

    Time Temperature Precipitation Wind Pressure Humidity
    00:00 +14°C° 0 mm 10 mps 752 mmHg 46%
    01:00 +13°C° 0 mm 10 mps 752 mmHg 49%
    02:00 +13°C° 0 mm 9 mps 752 mmHg 51%
    03:00 +12°C° 0 mm 8 mps 751 mmHg 54%
    04:00 +12°C° 0 mm 8 mps 751 mmHg 57%
    05:00 +12°C° 0 mm 9 mps 751 mmHg 60%
    06:00 +12°C° 0 mm 9 mps 751 mmHg 63%
    07:00 +13°C° 0 mm 9 mps 752 mmHg 60%
    08:00 +13°C° 0 mm 9 mps 752 mmHg 56%
    09:00 +15°C° 0 mm 9 mps 752 mmHg 53%
    10:00 +16°C° 0 mm 9 mps 752 mmHg 51%
    11:00 +16°C° 0 mm 9 mps 752 mmHg 49%
    12:00 +17°C° 0 mm 9 mps 752 mmHg 47%
    13:00 +17°C° 0 mm 10 mps 752 mmHg 48%
    14:00 +17°C° 0 mm 12 mps 752 mmHg 50%
    15:00 +17°C° 0 mm 13 mps 752 mmHg 51%
    16:00 +15°C° 0 mm 13 mps 752 mmHg 55%
    17:00 +14°C° 0 mm 13 mps 753 mmHg 59%
    18:00 +13°C° 0 mm 13 mps 753 mmHg 63%
    19:00 +13°C° 0 mm 12 mps 754 mmHg 65%
    20:00 +12°C° 0 mm 11 mps 754 mmHg 67%
    21:00 +12°C° 0 mm 9 mps 755 mmHg 69%
    22:00 +12°C° 0.1 mm 8 mps 755 mmHg 70%
    23:00 +12°C° 0.1 mm 7 mps 755 mmHg 71%

    28 March, Thursday

    Time Temperature Precipitation Wind Pressure Humidity
    00:00 +13°C° 0.1 mm 6 mps 755 mmHg 73%
    01:00 +11°C° 0 mm 6 mps 755 mmHg 74%
    02:00 +11°C° 0 mm 6 mps 755 mmHg 75%
    03:00 +12°C° 0 mm 5 mps 754 mmHg 76%
    04:00 +12°C° 0 mm 5 mps 755 mmHg 75%
    05:00 +12°C° 0 mm 5 mps 755 mmHg 74%
    06:00 +12°C° 0 mm 5 mps 755 mmHg 73%
    07:00 +13°C° 0 mm 5 mps 756 mmHg 70%
    08:00 +14°C° 0 mm 5 mps 756 mmHg 66%
    09:00 +14°C° 0 mm 6 mps 756 mmHg 63%
    10:00 +16°C° 0 mm 6 mps 756 mmHg 57%
    11:00 +17°C° 0 mm 6 mps 756 mmHg 52%
    12:00 +20°C° 0 mm 6 mps 756 mmHg 47%
    13:00 +20°C° 0 mm 7 mps 755 mmHg 48%
    14:00 +20°C° 0 mm 8 mps 755 mmHg 49%
    15:00 +19°C° 0 mm 9 mps 755 mmHg 50%
    16:00 +18°C° 0 mm 8 mps 755 mmHg 56%
    17:00 +16°C° 0 mm 8 mps 755 mmHg 63%
    18:00 +15°C° 0 mm 8 mps 755 mmHg 70%
    19:00 +14°C° 0 mm 7 mps 755 mmHg 74%
    20:00 +14°C° 0 mm 6 mps 756 mmHg 78%
    21:00 +13°C° 0 mm 5 mps 756 mmHg 83%
    22:00 +13°C° 0 mm 5 mps 756 mmHg 84%
    23:00 +12°C° 0 mm 5 mps 756 mmHg 85%

    29 March, Friday

    Time Temperature Precipitation Wind Pressure Humidity
    00:00 +12°C° 0 mm 5 mps 756 mmHg 86%
    01:00 +12°C° 0 mm 5 mps 756 mmHg 87%
    02:00 +12°C° 0 mm 4 mps 756 mmHg 87%
    03:00 +12°C° 0 mm 4 mps 756 mmHg 88%
    04:00 +11°C° 0 mm 4 mps 756 mmHg 88%
    05:00 +10°C° 0 mm 5 mps 756 mmHg 88%
    06:00 +10°C° 0 mm 5 mps 756 mmHg 88%
    07:00 +13°C° 0 mm 5 mps 756 mmHg 81%
    08:00 +14°C° 0 mm 5 mps 756 mmHg 75%
    09:00 +16°C° 0 mm 5 mps 757 mmHg 68%
    10:00 +17°C° 0 mm 6 mps 756 mmHg 64%
    11:00 +18°C° 0 mm 7 mps 756 mmHg 60%
    12:00 +18°C° 0 mm 7 mps 756 mmHg 57%
    13:00 +18°C° 0 mm 7 mps 756 mmHg 57%
    14:00 +18°C° 0 mm 7 mps 755 mmHg 58%
    15:00 +18°C° 0 mm 8 mps 754 mmHg 59%
    16:00 +17°C° 0 mm 7 mps 754 mmHg 63%
    17:00 +16°C° 0 mm 7 mps 754 mmHg 66%
    18:00 +15°C° 0 mm 6 mps 754 mmHg 70%
    19:00 +14°C° 0 mm 6 mps 755 mmHg 74%
    20:00 +14°C° 0 mm 5 mps 755 mmHg 78%
    21:00 +13°C° 0 mm 5 mps 756 mmHg 81%
    22:00 +13°C° 0 mm 5 mps 755 mmHg 83%
    23:00 +13°C° 0 mm 4 mps 755 mmHg 85%
    Show more